contact:dominique.lefevre@mio.osupytheas.fr, maurice.libes@osupytheas.fr, didier.mallarino@osupytheas.fr
Project:EMSO http://www.emso-fr.org/EMSO-France
Depth: 2436.0 m
Title:EMSO Ligure Ouest : Data MII capteur MICROCAT
DateTime_Computer,Latitude,Longitude,Temperature,Conductivity,Pressure,DateTime_Instrument
DateTime_Computer,Latitude,Longitude,degC,S m-1,dbar,DateTime_Instrument
2023-10-29T00:02:35Z,42.805,6.029,13.3046,4.60133,2470.74,2023-10-29T02:05:01Z
2023-10-29T00:05:39Z,42.805,6.029,13.3048,4.60130,2470.717,2023-10-29T02:08:04Z
2023-10-29T00:08:42Z,42.805,6.029,13.3040,4.60116,2470.74,2023-10-29T02:11:07Z
2023-10-29T00:11:45Z,42.805,6.029,13.3041,4.60126,2470.74,2023-10-29T02:14:10Z
2023-10-29T00:14:48Z,42.805,6.029,13.3044,4.60127,2470.74,2023-10-29T02:17:13Z
2023-10-29T00:17:51Z,42.805,6.029,13.3043,4.60118,2470.74,2023-10-29T02:20:17Z
2023-10-29T00:20:54Z,42.805,6.029,13.3046,4.60123,2470.754,2023-10-29T02:23:20Z
2023-10-29T00:23:57Z,42.805,6.029,13.3039,4.60119,2470.754,2023-10-29T02:26:23Z
2023-10-29T00:27:00Z,42.805,6.029,13.3051,4.60130,2470.74,2023-10-29T02:29:26Z
2023-10-29T00:30:03Z,42.805,6.029,13.3046,4.60132,2470.717,2023-10-29T02:32:29Z
2023-10-29T00:33:06Z,42.805,6.029,13.3041,4.60119,2470.74,2023-10-29T02:35:32Z
2023-10-29T00:36:09Z,42.805,6.029,13.3042,4.60135,2470.717,2023-10-29T02:38:35Z
2023-10-29T00:39:12Z,42.805,6.029,13.3046,4.60135,2470.73,2023-10-29T02:41:38Z
2023-10-29T00:42:16Z,42.805,6.029,13.3041,4.60115,2470.717,2023-10-29T02:44:41Z
2023-10-29T00:45:19Z,42.805,6.029,13.3043,4.60115,2470.73,2023-10-29T02:47:44Z
2023-10-29T00:48:22Z,42.805,6.029,13.3041,4.60115,2470.73,2023-10-29T02:50:47Z
2023-10-29T00:51:25Z,42.805,6.029,13.3043,4.60126,2470.754,2023-10-29T02:53:51Z
2023-10-29T00:54:28Z,42.805,6.029,13.3049,4.60135,2470.74,2023-10-29T02:56:54Z
2023-10-29T00:57:31Z,42.805,6.029,13.3043,4.60123,2470.73,2023-10-29T02:59:57Z
2023-10-29T01:00:34Z,42.805,6.029,13.3040,4.60130,2470.74,2023-10-29T03:03:00Z
2023-10-29T01:03:37Z,42.805,6.029,13.3042,4.60121,2470.74,2023-10-29T03:06:03Z
2023-10-29T01:06:40Z,42.805,6.029,13.3041,4.60116,2470.684,2023-10-29T03:09:06Z
2023-10-29T01:09:43Z,42.805,6.029,13.3045,4.60135,2470.707,2023-10-29T03:12:09Z
2023-10-29T01:12:46Z,42.805,6.029,13.3036,4.60120,2470.67,2023-10-29T03:15:12Z
2023-10-29T01:15:49Z,42.805,6.029,13.3042,4.60133,2470.707,2023-10-29T03:18:15Z
2023-10-29T01:18:53Z,42.805,6.029,13.3047,4.60132,2470.73,2023-10-29T03:21:18Z
2023-10-29T01:21:56Z,42.805,6.029,13.3049,4.60129,2470.693,2023-10-29T03:24:21Z
2023-10-29T01:24:59Z,42.805,6.029,13.3046,4.60123,2470.684,2023-10-29T03:27:24Z
2023-10-29T01:28:02Z,42.805,6.029,13.3046,4.60122,2470.717,2023-10-29T03:30:27Z
2023-10-29T01:31:05Z,42.805,6.029,13.3040,4.60118,2470.73,2023-10-29T03:33:31Z
2023-10-29T01:34:08Z,42.805,6.029,13.3041,4.60117,2470.754,2023-10-29T03:36:34Z
2023-10-29T01:37:11Z,42.805,6.029,13.3040,4.60114,2470.707,2023-10-29T03:39:37Z
2023-10-29T01:40:14Z,42.805,6.029,13.3048,4.60123,2470.74,2023-10-29T03:42:40Z
2023-10-29T01:43:17Z,42.805,6.029,13.3046,4.60116,2470.73,2023-10-29T03:45:43Z
2023-10-29T01:46:20Z,42.805,6.029,13.3046,4.60120,2470.717,2023-10-29T03:48:46Z
2023-10-29T01:49:23Z,42.805,6.029,13.3050,4.60127,2470.74,2023-10-29T03:51:49Z
2023-10-29T01:52:26Z,42.805,6.029,13.3039,4.60117,2470.717,2023-10-29T03:54:52Z
2023-10-29T01:55:29Z,42.805,6.029,13.3042,4.60122,2470.693,2023-10-29T03:57:55Z
2023-10-29T01:58:33Z,42.805,6.029,13.3052,4.60135,2470.717,2023-10-29T04:00:58Z
2023-10-29T02:01:36Z,42.805,6.029,13.3045,4.60117,2470.717,2023-10-29T04:04:01Z
2023-10-29T02:04:39Z,42.805,6.029,13.3042,4.60117,2470.717,2023-10-29T04:07:04Z
2023-10-29T02:07:42Z,42.805,6.029,13.3048,4.60119,2470.73,2023-10-29T04:10:08Z
2023-10-29T02:10:45Z,42.805,6.029,13.3041,4.60119,2470.74,2023-10-29T04:13:11Z
2023-10-29T02:13:48Z,42.805,6.029,13.3041,4.60123,2470.73,2023-10-29T04:16:14Z
2023-10-29T02:16:51Z,42.805,6.029,13.3047,4.60129,2470.73,2023-10-29T04:19:17Z
2023-10-29T02:19:54Z,42.805,6.029,13.3041,4.60123,2470.74,2023-10-29T04:22:20Z
2023-10-29T02:22:57Z,42.805,6.029,13.3041,4.60125,2470.693,2023-10-29T04:25:23Z
2023-10-29T02:26:00Z,42.805,6.029,13.3041,4.60117,2470.754,2023-10-29T04:28:26Z
2023-10-29T02:29:03Z,42.805,6.029,13.3043,4.60114,2470.74,2023-10-29T04:31:29Z
2023-10-29T02:32:06Z,42.805,6.029,13.3036,4.60114,2470.693,2023-10-29T04:34:32Z
2023-10-29T02:35:10Z,42.805,6.029,13.3039,4.60121,2470.717,2023-10-29T04:37:35Z
2023-10-29T02:38:13Z,42.805,6.029,13.3048,4.60135,2470.693,2023-10-29T04:40:38Z
2023-10-29T02:41:16Z,42.805,6.029,13.3048,4.60129,2470.693,2023-10-29T04:43:41Z
2023-10-29T02:44:19Z,42.805,6.029,13.3041,4.60129,2470.73,2023-10-29T04:46:44Z
2023-10-29T02:47:22Z,42.805,6.029,13.3039,4.60120,2470.754,2023-10-29T04:49:48Z
2023-10-29T02:50:25Z,42.805,6.029,13.3046,4.60125,2470.73,2023-10-29T04:52:51Z
2023-10-29T02:53:28Z,42.805,6.029,13.3050,4.60123,2470.74,2023-10-29T04:55:54Z
2023-10-29T02:56:31Z,42.805,6.029,13.3038,4.60114,2470.717,2023-10-29T04:58:57Z
2023-10-29T02:59:34Z,42.805,6.029,13.3048,4.60117,2470.73,2023-10-29T05:02:00Z
2023-10-29T03:02:37Z,42.805,6.029,13.3037,4.60117,2470.74,2023-10-29T05:05:03Z
2023-10-29T03:05:40Z,42.805,6.029,13.3036,4.60119,2470.74,2023-10-29T05:08:06Z
2023-10-29T03:08:43Z,42.805,6.029,13.3053,4.60139,2470.693,2023-10-29T05:11:09Z
2023-10-29T03:11:47Z,42.805,6.029,13.3054,4.60122,2470.74,2023-10-29T05:14:12Z
2023-10-29T03:14:50Z,42.805,6.029,13.3043,4.60125,2470.74,2023-10-29T05:17:15Z
2023-10-29T03:17:53Z,42.805,6.029,13.3048,4.60139,2470.73,2023-10-29T05:20:18Z
2023-10-29T03:20:56Z,42.805,6.029,13.3044,4.60119,2470.754,2023-10-29T05:23:21Z
2023-10-29T03:23:59Z,42.805,6.029,13.3048,4.60134,2470.74,2023-10-29T05:26:25Z
2023-10-29T03:27:02Z,42.805,6.029,13.3046,4.60125,2470.74,2023-10-29T05:29:28Z
2023-10-29T03:30:05Z,42.805,6.029,13.3046,4.60138,2470.754,2023-10-29T05:32:31Z
2023-10-29T03:33:08Z,42.805,6.029,13.3047,4.60133,2470.763,2023-10-29T05:35:34Z
2023-10-29T03:36:11Z,42.805,6.029,13.3042,4.60129,2470.763,2023-10-29T05:38:37Z
2023-10-29T03:39:14Z,42.805,6.029,13.3048,4.60138,2470.763,2023-10-29T05:41:40Z
2023-10-29T03:42:17Z,42.805,6.029,13.3045,4.60119,2470.777,2023-10-29T05:44:43Z
2023-10-29T03:45:20Z,42.805,6.029,13.3049,4.60143,2470.787,2023-10-29T05:47:46Z
2023-10-29T03:48:23Z,42.805,6.029,13.3046,4.60139,2470.81,2023-10-29T05:50:49Z
2023-10-29T03:51:27Z,42.805,6.029,13.3043,4.60122,2470.777,2023-10-29T05:53:52Z
2023-10-29T03:54:30Z,42.805,6.029,13.3046,4.60133,2470.74,2023-10-29T05:56:55Z
2023-10-29T03:57:33Z,42.805,6.029,13.3052,4.60133,2470.787,2023-10-29T05:59:58Z
2023-10-29T04:00:36Z,42.805,6.029,13.3043,4.60122,2470.763,2023-10-29T06:03:02Z
2023-10-29T04:03:39Z,42.805,6.029,13.3051,4.60122,2470.81,2023-10-29T06:06:05Z
2023-10-29T04:06:42Z,42.805,6.029,13.3043,4.60120,2470.833,2023-10-29T06:09:08Z
2023-10-29T04:09:45Z,42.805,6.029,13.3055,4.60128,2470.824,2023-10-29T06:12:11Z
2023-10-29T04:12:48Z,42.805,6.029,13.3043,4.60128,2470.81,2023-10-29T06:15:14Z
2023-10-29T04:15:51Z,42.805,6.029,13.3042,4.60117,2470.847,2023-10-29T06:18:17Z
2023-10-29T04:18:54Z,42.805,6.029,13.3043,4.60133,2470.847,2023-10-29T06:21:20Z
2023-10-29T04:21:57Z,42.805,6.029,13.3054,4.60140,2470.833,2023-10-29T06:24:23Z
2023-10-29T04:25:00Z,42.805,6.029,13.3041,4.60125,2470.847,2023-10-29T06:27:26Z
2023-10-29T04:28:04Z,42.805,6.029,13.3043,4.60140,2470.871,2023-10-29T06:30:29Z
2023-10-29T04:31:07Z,42.805,6.029,13.3039,4.60141,2470.847,2023-10-29T06:33:32Z
2023-10-29T04:34:10Z,42.805,6.029,13.3045,4.60139,2470.833,2023-10-29T06:36:35Z
2023-10-29T04:37:13Z,42.805,6.029,13.3049,4.60138,2470.81,2023-10-29T06:39:39Z
2023-10-29T04:40:16Z,42.805,6.029,13.3039,4.60119,2470.871,2023-10-29T06:42:42Z
2023-10-29T04:43:19Z,42.805,6.029,13.3045,4.60121,2470.894,2023-10-29T06:45:45Z
2023-10-29T04:46:22Z,42.805,6.029,13.3040,4.60121,2470.857,2023-10-29T06:48:48Z
2023-10-29T04:49:25Z,42.805,6.029,13.3041,4.60120,2470.894,2023-10-29T06:51:51Z
2023-10-29T04:52:28Z,42.805,6.029,13.3046,4.60119,2470.833,2023-10-29T06:54:54Z
2023-10-29T04:55:31Z,42.805,6.029,13.3046,4.60140,2470.857,2023-10-29T06:57:57Z
2023-10-29T04:58:34Z,42.805,6.029,13.3045,4.60119,2470.857,2023-10-29T07:01:00Z
2023-10-29T05:01:37Z,42.805,6.029,13.3049,4.60140,2470.88,2023-10-29T07:04:03Z
2023-10-29T05:04:40Z,42.805,6.029,13.3046,4.60141,2470.88,2023-10-29T07:07:06Z
2023-10-29T05:07:44Z,42.805,6.029,13.3056,4.60144,2470.894,2023-10-29T07:10:09Z
2023-10-29T05:10:47Z,42.805,6.029,13.3046,4.60137,2470.88,2023-10-29T07:13:12Z
2023-10-29T05:13:50Z,42.805,6.029,13.3041,4.60122,2470.904,2023-10-29T07:16:15Z
2023-10-29T05:16:53Z,42.805,6.029,13.3051,4.60140,2470.917,2023-10-29T07:19:19Z
2023-10-29T05:19:56Z,42.805,6.029,13.3048,4.60144,2470.904,2023-10-29T07:22:22Z
2023-10-29T05:22:59Z,42.805,6.029,13.3041,4.60120,2470.894,2023-10-29T07:25:25Z
2023-10-29T05:26:02Z,42.805,6.029,13.3049,4.60124,2470.904,2023-10-29T07:28:28Z
2023-10-29T05:29:05Z,42.805,6.029,13.3054,4.60123,2470.927,2023-10-29T07:31:31Z
2023-10-29T05:32:09Z,42.805,6.029,13.3051,4.60128,2470.927,2023-10-29T07:34:35Z
2023-10-29T05:35:12Z,42.805,6.029,13.3044,4.60122,2470.927,2023-10-29T07:37:38Z
2023-10-29T05:38:15Z,42.805,6.029,13.3051,4.60132,2470.927,2023-10-29T07:40:41Z
2023-10-29T05:41:18Z,42.805,6.029,13.3045,4.60128,2470.917,2023-10-29T07:43:44Z
2023-10-29T05:44:21Z,42.805,6.029,13.3048,4.60134,2470.917,2023-10-29T07:46:47Z
2023-10-29T05:47:24Z,42.805,6.029,13.3056,4.60145,2470.904,2023-10-29T07:49:50Z
2023-10-29T05:50:27Z,42.805,6.029,13.3052,4.60135,2470.904,2023-10-29T07:52:53Z
2023-10-29T05:53:31Z,42.805,6.029,13.3050,4.60130,2470.904,2023-10-29T07:55:56Z
2023-10-29T05:56:34Z,42.805,6.029,13.3043,4.60121,2470.904,2023-10-29T07:58:59Z
2023-10-29T05:59:37Z,42.805,6.029,13.3051,4.60147,2470.917,2023-10-29T08:02:02Z
2023-10-29T06:02:40Z,42.805,6.029,13.3050,4.60130,2470.927,2023-10-29T08:05:05Z
2023-10-29T06:05:43Z,42.805,6.029,13.3044,4.60135,2470.927,2023-10-29T08:08:09Z
2023-10-29T06:08:46Z,42.805,6.029,13.3043,4.60125,2470.917,2023-10-29T08:11:12Z
2023-10-29T06:11:49Z,42.805,6.029,13.3039,4.60117,2470.927,2023-10-29T08:14:15Z
2023-10-29T06:14:52Z,42.805,6.029,13.3048,4.60128,2470.95,2023-10-29T08:17:18Z
2023-10-29T06:17:55Z,42.805,6.029,13.3048,4.60139,2470.964,2023-10-29T08:20:21Z
2023-10-29T06:20:58Z,42.805,6.029,13.3044,4.60126,2470.927,2023-10-29T08:23:24Z
2023-10-29T06:24:01Z,42.805,6.029,13.3051,4.60142,2470.964,2023-10-29T08:26:27Z
2023-10-29T06:27:04Z,42.805,6.029,13.3039,4.60122,2470.95,2023-10-29T08:29:30Z
2023-10-29T06:30:08Z,42.805,6.029,13.3040,4.60117,2470.927,2023-10-29T08:32:33Z
2023-10-29T06:33:11Z,42.805,6.029,13.3048,4.60137,2470.94,2023-10-29T08:35:36Z
2023-10-29T06:36:14Z,42.805,6.029,13.3051,4.60137,2470.95,2023-10-29T08:38:39Z
2023-10-29T06:39:17Z,42.805,6.029,13.3042,4.60118,2470.95,2023-10-29T08:41:42Z
2023-10-29T06:42:20Z,42.805,6.029,13.3043,4.60121,2470.964,2023-10-29T08:44:46Z
2023-10-29T06:45:23Z,42.805,6.029,13.3043,4.60120,2470.927,2023-10-29T08:47:49Z
2023-10-29T06:48:26Z,42.805,6.029,13.3040,4.60121,2470.973,2023-10-29T08:50:52Z
2023-10-29T06:51:29Z,42.805,6.029,13.3043,4.60121,2470.927,2023-10-29T08:53:55Z
2023-10-29T06:54:32Z,42.805,6.029,13.3050,4.60124,2470.95,2023-10-29T08:56:58Z
2023-10-29T06:57:35Z,42.805,6.029,13.3046,4.60126,2470.927,2023-10-29T09:00:01Z
2023-10-29T07:00:38Z,42.805,6.029,13.3046,4.60135,2470.964,2023-10-29T09:03:04Z
2023-10-29T07:03:41Z,42.805,6.029,13.3047,4.60137,2470.973,2023-10-29T09:06:07Z
2023-10-29T07:06:44Z,42.805,6.029,13.3051,4.60137,2470.987,2023-10-29T09:09:10Z
2023-10-29T07:09:48Z,42.805,6.029,13.3051,4.60141,2470.964,2023-10-29T09:12:13Z
2023-10-29T07:12:51Z,42.805,6.029,13.3043,4.60122,2470.987,2023-10-29T09:15:16Z
2023-10-29T07:15:54Z,42.805,6.029,13.3043,4.60132,2470.95,2023-10-29T09:18:19Z
2023-10-29T07:18:57Z,42.805,6.029,13.3041,4.60135,2470.95,2023-10-29T09:21:23Z
2023-10-29T07:22:00Z,42.805,6.029,13.3041,4.60120,2470.94,2023-10-29T09:24:26Z
2023-10-29T07:25:03Z,42.805,6.029,13.3048,4.60133,2470.94,2023-10-29T09:27:29Z
2023-10-29T07:28:06Z,42.805,6.029,13.3041,4.60117,2470.95,2023-10-29T09:30:32Z
2023-10-29T07:31:09Z,42.805,6.029,13.3036,4.60117,2470.987,2023-10-29T09:33:35Z
2023-10-29T07:34:12Z,42.805,6.029,13.3046,4.60122,2470.973,2023-10-29T09:36:38Z
2023-10-29T07:37:15Z,42.805,6.029,13.3039,4.60120,2470.95,2023-10-29T09:39:41Z
2023-10-29T07:40:18Z,42.805,6.029,13.3039,4.60117,2470.973,2023-10-29T09:42:44Z
2023-10-29T07:43:21Z,42.805,6.029,13.3046,4.60117,2470.973,2023-10-29T09:45:47Z
2023-10-29T07:46:25Z,42.805,6.029,13.3049,4.60142,2470.964,2023-10-29T09:48:50Z
2023-10-29T07:49:28Z,42.805,6.029,13.3046,4.60133,2470.95,2023-10-29T09:51:53Z
2023-10-29T07:52:31Z,42.805,6.029,13.3043,4.60134,2470.95,2023-10-29T09:54:56Z
2023-10-29T07:55:34Z,42.805,6.029,13.3048,4.60125,2470.94,2023-10-29T09:58:00Z
2023-10-29T07:58:37Z,42.805,6.029,13.3040,4.60123,2470.987,2023-10-29T10:01:03Z
2023-10-29T08:01:40Z,42.805,6.029,13.3036,4.60122,2470.95,2023-10-29T10:04:06Z
2023-10-29T08:04:43Z,42.805,6.029,13.3042,4.60122,2470.904,2023-10-29T10:07:09Z
2023-10-29T08:07:46Z,42.805,6.029,13.3044,4.60114,2470.987,2023-10-29T10:10:12Z
2023-10-29T08:10:49Z,42.805,6.029,13.3040,4.60119,2470.973,2023-10-29T10:13:15Z
2023-10-29T08:13:52Z,42.805,6.029,13.3043,4.60117,2470.95,2023-10-29T10:16:18Z
2023-10-29T08:16:55Z,42.805,6.029,13.3048,4.60132,2470.94,2023-10-29T10:19:21Z
2023-10-29T08:19:58Z,42.805,6.029,13.3045,4.60132,2470.973,2023-10-29T10:22:24Z
2023-10-29T08:23:02Z,42.805,6.029,13.3040,4.60131,2470.95,2023-10-29T10:25:27Z
2023-10-29T08:26:05Z,42.805,6.029,13.3037,4.60120,2470.95,2023-10-29T10:28:30Z
2023-10-29T08:29:08Z,42.805,6.029,13.3043,4.60122,2470.95,2023-10-29T10:31:33Z
2023-10-29T08:32:11Z,42.805,6.029,13.3041,4.60125,2470.95,2023-10-29T10:34:37Z
2023-10-29T08:35:14Z,42.805,6.029,13.3043,4.60118,2470.973,2023-10-29T10:37:40Z
2023-10-29T08:38:17Z,42.805,6.029,13.3039,4.60117,2470.927,2023-10-29T10:40:43Z
2023-10-29T08:41:20Z,42.805,6.029,13.3038,4.60141,2470.95,2023-10-29T10:43:46Z
2023-10-29T08:44:23Z,42.805,6.029,13.3044,4.60127,2470.927,2023-10-29T10:46:49Z
2023-10-29T08:47:26Z,42.805,6.029,13.3043,4.60115,2470.94,2023-10-29T10:49:52Z
2023-10-29T08:50:29Z,42.805,6.029,13.3046,4.60137,2470.917,2023-10-29T10:52:55Z
2023-10-29T08:53:32Z,42.805,6.029,13.3039,4.60120,2470.95,2023-10-29T10:55:58Z
2023-10-29T08:56:35Z,42.805,6.029,13.3054,4.60127,2470.927,2023-10-29T10:59:01Z
2023-10-29T08:59:39Z,42.805,6.029,13.3041,4.60120,2470.95,2023-10-29T11:02:04Z
2023-10-29T09:02:42Z,42.805,6.029,13.3047,4.60132,2470.894,2023-10-29T11:05:07Z
2023-10-29T09:05:45Z,42.805,6.029,13.3043,4.60127,2470.964,2023-10-29T11:08:10Z
2023-10-29T09:08:48Z,42.805,6.029,13.3047,4.60125,2470.94,2023-10-29T11:11:14Z
2023-10-29T09:11:51Z,42.805,6.029,13.3042,4.60138,2470.88,2023-10-29T11:14:17Z
2023-10-29T09:14:54Z,42.805,6.029,13.3042,4.60130,2470.927,2023-10-29T11:17:20Z
2023-10-29T09:17:57Z,42.805,6.029,13.3048,4.60140,2470.904,2023-10-29T11:20:23Z
2023-10-29T09:21:00Z,42.805,6.029,13.3043,4.60125,2470.927,2023-10-29T11:23:26Z
2023-10-29T09:24:03Z,42.805,6.029,13.3041,4.60122,2470.917,2023-10-29T11:26:29Z
2023-10-29T09:27:06Z,42.805,6.029,13.3039,4.60122,2470.904,2023-10-29T11:29:32Z
2023-10-29T09:30:09Z,42.805,6.029,13.3043,4.60122,2470.927,2023-10-29T11:32:35Z
2023-10-29T09:33:12Z,42.805,6.029,13.3058,4.60132,2470.904,2023-10-29T11:35:38Z
2023-10-29T09:36:16Z,42.805,6.029,13.3046,4.60128,2470.88,2023-10-29T11:38:41Z
2023-10-29T09:39:19Z,42.805,6.029,13.3051,4.60137,2470.904,2023-10-29T11:41:44Z
2023-10-29T09:42:22Z,42.805,6.029,13.3044,4.60125,2470.894,2023-10-29T11:44:47Z
2023-10-29T09:45:25Z,42.805,6.029,13.3051,4.60132,2470.94,2023-10-29T11:47:51Z
2023-10-29T09:48:28Z,42.805,6.029,13.3039,4.60117,2470.88,2023-10-29T11:50:54Z
2023-10-29T09:51:31Z,42.805,6.029,13.3041,4.60134,2470.871,2023-10-29T11:53:57Z
2023-10-29T09:54:34Z,42.805,6.029,13.3042,4.60125,2470.904,2023-10-29T11:57:00Z
2023-10-29T09:57:37Z,42.805,6.029,13.3046,4.60127,2470.904,2023-10-29T12:00:03Z
2023-10-29T10:00:40Z,42.805,6.029,13.3037,4.60122,2470.88,2023-10-29T12:03:06Z
2023-10-29T10:03:43Z,42.805,6.029,13.3049,4.60132,2470.904,2023-10-29T12:06:09Z
2023-10-29T10:06:46Z,42.805,6.029,13.3043,4.60131,2470.904,2023-10-29T12:09:12Z
2023-10-29T10:09:49Z,42.805,6.029,13.3057,4.60135,2470.88,2023-10-29T12:12:15Z
2023-10-29T10:12:53Z,42.805,6.029,13.3038,4.60120,2470.894,2023-10-29T12:15:18Z
2023-10-29T10:15:56Z,42.805,6.029,13.3039,4.60117,2470.88,2023-10-29T12:18:21Z
2023-10-29T10:18:59Z,42.805,6.029,13.3045,4.60115,2470.857,2023-10-29T12:21:24Z
2023-10-29T10:22:02Z,42.805,6.029,13.3039,4.60125,2470.857,2023-10-29T12:24:28Z
2023-10-29T10:25:05Z,42.805,6.029,13.3038,4.60119,2470.866,2023-10-29T12:27:31Z
2023-10-29T10:28:08Z,42.805,6.029,13.3039,4.60112,2470.871,2023-10-29T12:30:34Z
2023-10-29T10:31:11Z,42.805,6.029,13.3042,4.60114,2470.857,2023-10-29T12:33:37Z
2023-10-29T10:34:14Z,42.805,6.029,13.3046,4.60122,2470.894,2023-10-29T12:36:40Z
2023-10-29T10:37:17Z,42.805,6.029,13.3040,4.60113,2470.871,2023-10-29T12:39:43Z
2023-10-29T10:40:20Z,42.805,6.029,13.3041,4.60119,2470.857,2023-10-29T12:42:46Z
2023-10-29T10:43:23Z,42.805,6.029,13.3044,4.60119,2470.871,2023-10-29T12:45:49Z
2023-10-29T10:46:27Z,42.805,6.029,13.3042,4.60113,2470.88,2023-10-29T12:48:52Z
2023-10-29T10:49:30Z,42.805,6.029,13.3041,4.60114,2470.857,2023-10-29T12:51:55Z
2023-10-29T10:52:33Z,42.805,6.029,13.3048,4.60132,2470.857,2023-10-29T12:54:58Z
2023-10-29T10:55:36Z,42.805,6.029,13.3044,4.60131,2470.833,2023-10-29T12:58:02Z
2023-10-29T10:58:39Z,42.805,6.029,13.3038,4.60115,2470.81,2023-10-29T13:01:05Z
2023-10-29T11:01:42Z,42.805,6.029,13.3045,4.60132,2470.857,2023-10-29T13:04:08Z
2023-10-29T11:04:45Z,42.805,6.029,13.3043,4.60115,2470.871,2023-10-29T13:07:11Z
2023-10-29T11:07:48Z,42.805,6.029,13.3041,4.60127,2470.847,2023-10-29T13:10:14Z
2023-10-29T11:10:51Z,42.805,6.029,13.3042,4.60115,2470.833,2023-10-29T13:13:17Z
2023-10-29T11:13:54Z,42.805,6.029,13.3046,4.60131,2470.857,2023-10-29T13:16:20Z
2023-10-29T11:16:57Z,42.805,6.029,13.3040,4.60115,2470.857,2023-10-29T13:19:23Z
2023-10-29T11:20:00Z,42.805,6.029,13.3039,4.60115,2470.81,2023-10-29T13:22:26Z
2023-10-29T11:23:04Z,42.805,6.029,13.3043,4.60113,2470.81,2023-10-29T13:25:29Z
2023-10-29T11:26:07Z,42.805,6.029,13.3041,4.60125,2470.833,2023-10-29T13:28:32Z
2023-10-29T11:29:10Z,42.805,6.029,13.3041,4.60124,2470.824,2023-10-29T13:31:35Z
2023-10-29T11:32:12Z,42.805,6.029,13.3044,4.60122,2470.81,2023-10-29T13:34:38Z
2023-10-29T11:35:15Z,42.805,6.029,13.3039,4.60135,2470.81,2023-10-29T13:37:41Z
2023-10-29T11:38:18Z,42.805,6.029,13.3041,4.60117,2470.81,2023-10-29T13:40:44Z
2023-10-29T11:41:21Z,42.805,6.029,13.3050,4.60137,2470.81,2023-10-29T13:43:47Z
2023-10-29T11:44:24Z,42.805,6.029,13.3046,4.60116,2470.824,2023-10-29T13:46:50Z
2023-10-29T11:47:27Z,42.805,6.029,13.3041,4.60120,2470.833,2023-10-29T13:49:53Z
2023-10-29T11:50:31Z,42.805,6.029,13.3040,4.60115,2470.847,2023-10-29T13:52:56Z
2023-10-29T11:53:34Z,42.805,6.029,13.3036,4.60116,2470.8,2023-10-29T13:55:59Z
2023-10-29T11:56:37Z,42.805,6.029,13.3042,4.60125,2470.787,2023-10-29T13:59:02Z
2023-10-29T11:59:40Z,42.805,6.029,13.3034,4.60117,2470.824,2023-10-29T14:02:06Z
2023-10-29T12:02:43Z,42.805,6.029,13.3036,4.60111,2470.8,2023-10-29T14:05:09Z
2023-10-29T12:05:46Z,42.805,6.029,13.3040,4.60111,2470.787,2023-10-29T14:08:12Z
2023-10-29T12:08:49Z,42.805,6.029,13.3043,4.60131,2470.81,2023-10-29T14:11:15Z
2023-10-29T12:11:52Z,42.805,6.029,13.3042,4.60124,2470.787,2023-10-29T14:14:18Z
2023-10-29T12:14:55Z,42.805,6.029,13.3043,4.60116,2470.8,2023-10-29T14:17:21Z
2023-10-29T12:17:58Z,42.805,6.029,13.3039,4.60127,2470.81,2023-10-29T14:20:24Z
2023-10-29T12:21:01Z,42.805,6.029,13.3048,4.60125,2470.8,2023-10-29T14:23:27Z
2023-10-29T12:24:04Z,42.805,6.029,13.3043,4.60132,2470.787,2023-10-29T14:26:30Z
2023-10-29T12:27:08Z,42.805,6.029,13.3040,4.60116,2470.8,2023-10-29T14:29:33Z
2023-10-29T12:30:11Z,42.805,6.029,13.3041,4.60119,2470.777,2023-10-29T14:32:36Z
2023-10-29T12:33:14Z,42.805,6.029,13.3040,4.60114,2470.74,2023-10-29T14:35:39Z
2023-10-29T12:36:17Z,42.805,6.029,13.3040,4.60115,2470.763,2023-10-29T14:38:43Z
2023-10-29T12:39:20Z,42.805,6.029,13.3042,4.60122,2470.8,2023-10-29T14:41:46Z
2023-10-29T12:42:23Z,42.805,6.029,13.3039,4.60115,2470.74,2023-10-29T14:44:49Z
2023-10-29T12:45:26Z,42.805,6.029,13.3043,4.60120,2470.763,2023-10-29T14:47:52Z
2023-10-29T12:48:29Z,42.805,6.029,13.3043,4.60112,2470.787,2023-10-29T14:50:55Z
2023-10-29T12:51:32Z,42.805,6.029,13.3041,4.60119,2470.763,2023-10-29T14:53:58Z
2023-10-29T12:54:35Z,42.805,6.029,13.3045,4.60122,2470.777,2023-10-29T14:57:01Z
2023-10-29T12:57:38Z,42.805,6.029,13.3044,4.60114,2470.754,2023-10-29T15:00:04Z
2023-10-29T13:00:41Z,42.805,6.029,13.3050,4.60124,2470.787,2023-10-29T15:03:07Z
2023-10-29T13:03:45Z,42.805,6.029,13.3037,4.60114,2470.777,2023-10-29T15:06:10Z
2023-10-29T13:06:48Z,42.805,6.029,13.3039,4.60142,2470.74,2023-10-29T15:09:13Z
2023-10-29T13:09:51Z,42.805,6.029,13.3046,4.60121,2470.74,2023-10-29T15:12:16Z
2023-10-29T13:12:54Z,42.805,6.029,13.3042,4.60122,2470.763,2023-10-29T15:15:20Z
2023-10-29T13:15:57Z,42.805,6.029,13.3039,4.60120,2470.74,2023-10-29T15:18:23Z
2023-10-29T13:19:00Z,42.805,6.029,13.3039,4.60113,2470.777,2023-10-29T15:21:26Z
2023-10-29T13:22:03Z,42.805,6.029,13.3040,4.60119,2470.74,2023-10-29T15:24:29Z
2023-10-29T13:25:06Z,42.805,6.029,13.3053,4.60129,2470.763,2023-10-29T15:27:32Z
2023-10-29T13:28:09Z,42.805,6.029,13.3044,4.60122,2470.754,2023-10-29T15:30:35Z
2023-10-29T13:31:11Z,42.805,6.029,13.3041,4.60114,2470.717,2023-10-29T15:33:37Z
2023-10-29T13:34:14Z,42.805,6.029,13.3044,4.60112,2470.74,2023-10-29T15:36:40Z
2023-10-29T13:37:17Z,42.805,6.029,13.3034,4.60123,2470.754,2023-10-29T15:39:43Z
2023-10-29T13:40:20Z,42.805,6.029,13.3044,4.60134,2470.763,2023-10-29T15:42:46Z
2023-10-29T13:43:24Z,42.805,6.029,13.3043,4.60132,2470.726,2023-10-29T15:45:49Z
2023-10-29T13:46:27Z,42.805,6.029,13.3041,4.60117,2470.777,2023-10-29T15:48:52Z
2023-10-29T13:49:30Z,42.805,6.029,13.3041,4.60114,2470.777,2023-10-29T15:51:55Z
2023-10-29T13:52:33Z,42.805,6.029,13.3038,4.60117,2470.754,2023-10-29T15:54:59Z
2023-10-29T13:55:36Z,42.805,6.029,13.3044,4.60120,2470.74,2023-10-29T15:58:02Z
2023-10-29T13:58:39Z,42.805,6.029,13.3045,4.60130,2470.754,2023-10-29T16:01:05Z
2023-10-29T14:01:42Z,42.805,6.029,13.3039,4.60130,2470.73,2023-10-29T16:04:08Z
2023-10-29T14:04:45Z,42.805,6.029,13.3044,4.60119,2470.74,2023-10-29T16:07:11Z
2023-10-29T14:07:48Z,42.805,6.029,13.3043,4.60132,2470.763,2023-10-29T16:10:14Z
2023-10-29T14:10:51Z,42.805,6.029,13.3042,4.60117,2470.754,2023-10-29T16:13:17Z
2023-10-29T14:13:54Z,42.805,6.029,13.3043,4.60121,2470.73,2023-10-29T16:16:20Z
2023-10-29T14:16:57Z,42.805,6.029,13.3040,4.60112,2470.717,2023-10-29T16:19:23Z
2023-10-29T14:20:01Z,42.805,6.029,13.3048,4.60126,2470.717,2023-10-29T16:22:26Z
2023-10-29T14:23:04Z,42.805,6.029,13.3039,4.60124,2470.74,2023-10-29T16:25:29Z
2023-10-29T14:26:07Z,42.805,6.029,13.3042,4.60114,2470.717,2023-10-29T16:28:32Z
2023-10-29T14:29:10Z,42.805,6.029,13.3046,4.60131,2470.717,2023-10-29T16:31:35Z
2023-10-29T14:32:13Z,42.805,6.029,13.3036,4.60114,2470.754,2023-10-29T16:34:39Z
2023-10-29T14:35:16Z,42.805,6.029,13.3046,4.60128,2470.717,2023-10-29T16:37:42Z
2023-10-29T14:38:19Z,42.805,6.029,13.3048,4.60133,2470.74,2023-10-29T16:40:45Z
2023-10-29T14:41:22Z,42.805,6.029,13.3040,4.60131,2470.73,2023-10-29T16:43:48Z
2023-10-29T14:44:25Z,42.805,6.029,13.3051,4.60125,2470.74,2023-10-29T16:46:51Z
2023-10-29T14:47:28Z,42.805,6.029,13.3039,4.60130,2470.73,2023-10-29T16:49:54Z
2023-10-29T14:50:31Z,42.805,6.029,13.3040,4.60135,2470.754,2023-10-29T16:52:57Z
2023-10-29T14:53:34Z,42.805,6.029,13.3051,4.60141,2470.763,2023-10-29T16:56:00Z
2023-10-29T14:56:38Z,42.805,6.029,13.3043,4.60151,2470.74,2023-10-29T16:59:03Z
2023-10-29T14:59:41Z,42.805,6.029,13.3046,4.60138,2470.763,2023-10-29T17:02:06Z
2023-10-29T15:02:44Z,42.805,6.029,13.3046,4.60134,2470.74,2023-10-29T17:05:09Z